GFSNW_700_spd_201.txt.gz
Wind_Speed
60 58 56 55 66 61 63 59 62 57 61 66 61 60 62 57 51 54 48 48 45 46 40 36 37 35 31 23 30 27 28 20 17 15 14 16 14 13 18 15 8 11 5 27
59 59 56 60 67 67 60 66 58 49 67 57 59 58 64 57 49 46 53 54 46 38 39 29 37 36 35 22 21 22 26 16 12 8 15 16 13 17 19 21 19 13 7 30
57 58 56 56 71 69 58 67 43 52 69 62 66 55 54 58 54 48 48 48 41 33 27 34 29 34 28 23 22 21 18 18 12 11 8 11 12 17 17 15 7 8 31 32
57 54 52 52 71 67 69 67 43 62 66 65 59 58 50 51 50 45 44 41 42 40 34 31 28 26 24 19 18 15 15 12 14 17 20 24 25 26 26 26 24 18 44 37
55 48 49 52 70 60 83 61 50 61 49 54 54 51 42 54 44 47 43 40 38 40 32 39 37 37 29 18 17 16 16 12 16 15 19 21 25 25 26 27 30 34 33 38
44 48 45 56 55 66 85 66 65 48 38 51 56 52 44 46 44 34 39 37 37 34 29 28 20 25 24 20 19 17 16 15 13 7 10 16 25 25 20 17 12 16 24 25
41 42 47 56 68 81 77 72 61 51 43 61 57 51 47 45 44 36 32 31 35 29 24 22 20 20 18 17 16 17 19 17 14 6 7 3 10 6 7 11 11 13 19 23
43 47 54 59 67 71 73 65 52 56 45 52 46 41 44 45 35 36 31 24 21 27 26 19 12 10 11 18 20 23 23 21 10 6 15 20 25 17 13 10 20 19 21 17
46 49 51 58 65 62 61 40 50 44 44 44 45 44 45 42 34 34 32 29 24 21 20 14 6 8 8 7 6 15 20 23 20 10 5 6 1 1 8 12 22 19 9 15
38 35 30 29 29 22 17 19 27 28 34 42 39 42 40 35 35 35 32 29 25 21 20 17 11 10 11 8 10 13 14 16 26 24 11 13 23 21 11 12 14 12 17 14
38 36 36 34 30 24 20 30 22 17 28 36 31 33 36 36 31 36 34 29 24 27 21 16 12 10 15 12 13 13 13 9 14 18 13 13 23 20 18 18 19 16 15 18
35 33 34 35 31 25 20 31 24 20 30 38 30 28 22 18 18 21 27 22 26 21 19 15 11 11 13 13 8 12 11 20 13 13 14 16 16 13 21 18 14 17 19 16
30 27 27 26 26 24 15 31 30 26 35 34 27 23 20 17 16 18 20 24 17 18 16 13 10 7 11 13 14 13 18 18 24 23 29 26 25 24 26 23 20 22 24 26
22 22 23 24 24 24 19 25 26 25 34 34 27 21 19 18 18 17 15 13 13 11 12 12 12 13 11 16 16 19 18 18 21 25 29 29 26 20 18 19 24 28 30 29
23 23 23 24 25 25 21 25 26 24 12 33 26 16 13 12 12 13 13 12 12 13 12 13 13 15 14 16 20 26 23 21 25 29 21 23 25 20 21 25 30 29 28 31
18 19 18 17 17 19 19 20 18 17 15 31 27 19 17 13 10 9 9 11 12 12 11 12 13 11 11 11 20 23 19 9 12 21 17 23 27 27 25 29 30 31 32 34
15 15 15 14 14 15 15 18 22 21 22 25 24 17 15 13 10 11 11 10 11 13 13 13 13 13 13 20 25 14 19 18 16 18 20 24 22 25 25 27 28 31 33 32
13 13 13 14 15 14 18 19 18 18 18 19 9 16 15 13 10 10 11 9 9 10 11 13 14 14 16 20 14 5 7 6 5 7 11 16 17 20 22 24 27 31 34 35
13 13 14 15 16 18 20 19 19 17 12 10 14 17 16 13 10 8 7 6 7 9 13 13 11 16 16 10 8 10 8 7 5 6 11 17 21 21 22 23 24 26 26 29
14 14 15 16 16 17 18 18 20 19 18 15 18 13 16 15 12 9 6 5 5 4 3 4 10 19 6 8 7 6 5 4 8 11 14 18 19 21 23 25 25 25 26 27
10 9 12 13 15 19 14 7 7 9 10 12 13 10 10 8 8 9 5 4 4 3 2 3 4 7 3 6 10 9 6 6 10 15 20 23 24 24 25 25 25 22 21 21
6 7 10 14 10 5 6 7 7 7 7 8 8 6 5 5 5 7 6 5 4 3 4 4 5 4 3 4 12 7 5 8 13 18 21 24 26 27 27 24 22 19 17 16
4 6 6 4 3 5 4 5 7 8 9 7 5 5 5 3 2 4 5 6 5 3 5 4 7 7 9 10 7 6 10 14 18 22 24 26 27 26 24 22 20 17 15 17
2 3 3 3 4 5 10 18 13 10 7 4 2 0 2 3 3 4 3 5 5 4 5 5 6 10 13 15 10 10 16 20 23 25 26 27 25 22 21 21 19 17 16 15
1 1 2 3 8 15 13 8 3 2 5 6 4 2 4 5 5 4 5 5 5 6 5 4 5 4 5 11 15 19 20 22 22 23 22 22 21 19 19 20 19 17 16 14
5 3 5 8 12 11 6 2 5 8 8 5 6 5 5 8 5 6 7 5 5 5 6 9 13 15 17 16 15 16 18 20 20 20 21 20 19 18 19 18 17 15 14 13
6 7 12 13 11 7 4 4 6 4 4 5 6 5 4 5 5 8 8 11 10 9 11 13 14 15 16 17 18 18 20 20 20 20 20 18 18 19 18 16 15 12 12 11

GFSNW_700_spd_207.txt.gz
Wind_Speed
69 67 65 62 52 49 50 49 54 67 79 53 76 72 56 66 65 52 38 46 42 37 33 39 37 36 30 27 24 21 25 17 18 21 14 22 31 30 37 19 9 20 16 15
70 65 68 60 54 52 53 51 55 56 69 59 58 56 64 67 59 64 48 46 44 47 40 30 39 36 34 37 34 27 25 18 7 5 18 25 27 33 38 35 25 30 13 10
66 63 62 60 55 54 54 50 47 42 53 71 60 57 58 52 58 63 66 54 38 38 40 45 23 33 35 42 41 35 29 29 24 17 9 19 35 35 34 37 29 27 38 25
59 61 56 56 54 54 55 53 41 48 64 71 60 61 65 57 53 55 56 52 60 58 43 46 48 35 33 31 36 34 35 31 36 25 21 20 25 38 40 40 40 31 34 39
51 55 53 52 50 51 55 49 48 38 39 71 48 65 59 68 57 62 61 62 62 53 50 50 47 45 44 39 38 35 35 20 27 27 24 24 27 26 34 36 36 38 42 48
48 48 48 48 48 54 57 56 60 21 63 63 53 64 59 64 66 53 56 59 49 55 51 45 41 36 37 38 38 39 36 31 26 17 24 20 25 38 35 36 40 41 41 41
38 40 42 42 44 53 55 54 52 34 30 52 62 47 60 60 62 57 49 51 54 47 53 48 43 36 34 39 31 34 32 28 21 10 13 7 19 19 32 39 41 41 42 41
29 34 36 38 39 51 49 52 51 36 26 57 59 58 54 47 48 47 42 47 50 50 45 33 20 21 22 24 28 33 36 39 13 12 13 12 15 19 19 26 29 29 27 23
24 28 30 34 37 43 46 49 57 12 47 31 51 59 55 59 53 49 38 39 44 47 43 31 12 12 14 15 21 28 28 26 26 13 7 9 15 22 19 19 22 22 25 21
21 26 31 33 36 43 48 43 41 25 27 34 43 56 57 56 54 49 42 41 39 43 43 29 15 9 20 17 24 28 25 21 22 16 8 8 15 11 18 13 9 9 13 17
17 23 35 33 38 40 44 37 33 30 24 27 40 52 61 58 55 57 48 46 44 47 34 25 11 12 17 15 21 30 26 23 15 16 11 12 19 24 20 15 13 12 13 17
20 27 32 34 35 36 34 35 32 29 26 34 43 44 50 51 52 54 53 45 50 30 25 15 12 15 17 23 18 22 21 22 21 17 12 8 10 12 13 15 15 19 18 18
32 16 29 28 35 38 35 34 33 32 34 31 30 32 39 39 42 42 50 39 41 34 34 25 16 11 26 19 16 26 19 25 15 17 17 15 14 13 17 19 23 25 26 27
33 30 22 22 36 37 35 35 36 34 34 35 28 25 25 25 26 24 25 27 36 26 26 21 14 17 19 21 13 21 22 22 22 23 19 16 17 17 21 26 27 28 30 30
24 25 26 25 25 35 42 44 41 41 27 51 41 35 31 26 18 20 21 17 23 18 19 15 14 16 15 17 17 18 21 24 26 25 18 19 19 20 22 25 25 26 27 27
15 16 18 21 22 24 35 36 22 23 37 47 43 33 28 22 19 20 21 19 17 16 16 16 15 15 12 10 13 16 17 18 18 16 14 18 18 16 17 20 20 23 25 26
11 12 13 15 17 15 13 29 34 40 42 43 29 22 21 21 17 17 17 15 15 15 15 14 14 14 12 12 11 7 10 14 16 16 15 13 12 12 15 17 17 19 20 21
9 9 10 12 12 6 24 32 30 26 21 28 14 24 22 20 20 21 19 18 17 16 13 14 13 12 12 5 8 12 13 15 16 15 12 7 5 5 8 12 15 17 20 22
8 9 12 15 11 19 25 26 24 17 6 9 20 26 27 22 20 20 17 13 11 10 11 11 12 13 8 11 11 10 10 10 9 7 6 6 5 7 11 14 17 21 21 24
8 11 14 15 16 22 19 16 14 6 5 11 29 25 25 22 20 18 12 11 9 8 11 12 11 13 12 15 13 13 10 9 8 7 7 6 9 12 15 18 21 24 25 24
8 11 17 23 21 19 11 6 7 8 11 20 17 20 26 23 17 18 8 8 7 5 8 9 5 6 9 9 11 14 12 10 9 7 7 8 12 16 20 23 24 25 24 23
10 16 21 13 5 5 6 6 7 6 7 18 24 23 21 20 17 6 8 5 6 4 10 6 3 10 9 7 6 10 12 12 8 6 9 14 17 22 25 25 23 23 21 21
10 13 6 3 3 4 4 5 8 9 21 24 23 21 19 15 7 6 5 4 4 9 7 4 7 12 9 8 5 11 15 11 9 10 13 18 20 23 24 23 22 21 19 20
5 3 2 3 3 4 8 15 22 22 21 21 20 20 11 11 7 6 5 7 8 7 5 6 10 11 9 7 8 10 11 11 14 18 20 19 19 21 22 22 21 20 19 19
3 3 3 3 9 22 23 22 19 18 16 15 16 11 9 8 5 5 5 7 4 6 5 7 9 9 6 5 7 7 7 10 14 16 18 19 20 20 21 20 20 19 18 18
1 2 3 12 21 22 19 16 14 13 12 12 11 7 5 4 4 5 5 5 5 4 9 10 8 5 6 7 8 9 12 15 16 18 20 21 20 18 18 19 18 17 16 16
3 4 7 16 16 15 12 9 7 7 7 7 5 5 6 6 5 6 7 6 5 4 9 7 4 5 7 8 11 13 14 16 17 19 18 17 15 15 15 16 16 16 16 15

GFSNW_700_spd_210.txt.gz
Wind_Speed
65 64 64 63 60 60 53 51 57 50 50 60 73 61 33 60 64 53 51 45 36 41 41 35 30 29 22 25 36 37 25 12 15 19 16 25 28 32 35 16 10 17 14 12
66 62 62 65 61 64 58 55 56 45 44 62 57 79 60 46 64 62 53 42 42 37 36 28 36 29 34 26 29 28 35 16 9 7 11 21 30 30 36 33 21 27 13 6
59 61 59 63 62 66 58 56 48 47 46 57 66 64 50 45 55 69 62 55 38 34 38 37 37 35 36 34 33 26 24 23 23 20 15 13 35 32 36 40 32 27 44 25
42 49 53 61 61 64 60 60 40 45 44 48 71 55 56 43 43 58 54 43 49 49 35 46 33 43 41 41 40 42 27 27 26 29 26 18 17 31 35 43 48 33 31 32
37 36 48 59 59 61 60 55 43 43 43 54 57 63 72 49 46 57 59 50 54 55 50 60 48 44 47 43 44 40 39 28 24 30 28 22 23 25 31 37 38 41 39 30
18 32 43 54 55 60 62 58 58 21 39 42 50 69 46 61 54 53 67 65 53 51 47 36 27 35 41 34 36 47 41 34 19 13 22 13 24 38 33 36 36 38 40 31
12 26 44 46 48 59 56 56 49 46 40 38 46 49 56 59 60 51 53 57 50 53 50 40 34 34 37 38 37 39 39 40 24 8 14 9 21 18 27 35 36 37 33 22
15 28 34 33 40 49 50 49 52 45 20 33 27 49 68 43 48 45 50 50 54 56 45 36 25 25 25 28 34 35 37 41 17 14 24 11 17 28 25 30 31 32 31 30
11 16 22 30 37 45 48 48 44 46 43 28 15 40 41 50 53 43 46 52 54 51 49 38 18 13 15 14 20 33 34 37 26 18 9 11 14 18 17 19 23 27 27 28
11 17 23 28 32 38 45 46 42 42 39 44 20 37 52 36 56 51 50 50 50 50 50 32 16 10 19 19 25 35 35 34 28 17 14 10 17 11 16 14 8 15 20 22
18 20 22 26 32 31 37 38 42 37 34 41 16 38 54 57 56 51 51 50 46 48 33 24 16 11 20 17 25 34 31 25 22 18 14 14 18 17 17 16 18 13 12 16
17 23 25 26 31 33 30 33 38 34 29 27 21 30 38 57 45 51 45 38 52 37 31 18 19 13 20 22 19 23 19 24 23 23 16 17 14 13 24 18 15 14 12 15
10 16 26 28 31 29 32 31 30 28 30 29 29 31 36 57 41 43 46 48 37 45 50 43 29 16 25 19 15 29 21 33 21 23 22 19 15 16 17 17 18 18 18 18
33 5 18 27 21 26 32 30 27 26 26 23 15 20 37 44 55 50 47 47 45 43 45 39 27 23 26 28 21 31 30 30 24 20 14 19 19 17 17 20 19 17 20 20
28 26 7 20 29 30 24 23 25 22 36 24 24 20 20 21 29 39 40 40 43 37 35 32 23 22 22 23 17 19 29 30 28 20 25 16 14 16 20 20 18 17 18 19
21 23 31 25 29 35 39 34 30 33 32 37 31 29 27 25 21 24 30 28 33 32 26 24 23 23 15 21 14 18 28 24 19 19 17 17 19 17 15 15 16 17 18 18
12 14 15 19 22 18 35 30 32 42 40 39 20 22 26 30 30 34 28 24 23 21 20 15 22 27 21 18 10 21 22 22 22 22 18 17 14 14 15 14 14 14 15 16
9 7 10 15 15 17 27 37 37 32 28 24 12 27 29 28 28 28 24 22 19 17 15 19 21 19 13 7 15 15 16 17 18 15 15 15 13 11 10 9 9 11 13 16
7 11 13 19 19 22 23 18 15 9 2 7 17 22 24 24 25 26 22 19 16 15 17 17 16 14 5 9 15 16 17 17 17 16 14 13 12 11 8 8 10 12 15 19
5 12 15 15 17 21 16 11 5 3 8 12 26 20 28 25 26 25 14 13 8 6 10 14 9 7 12 18 18 17 16 17 16 17 16 13 11 9 8 9 13 17 19 21
4 9 11 15 14 11 5 2 3 4 7 17 19 19 28 26 22 18 8 7 6 5 8 8 6 7 16 16 15 14 16 16 16 15 13 11 9 7 8 12 15 17 19 20
16 21 16 7 4 3 3 4 4 4 5 16 17 24 25 25 19 9 10 6 5 3 15 5 5 11 19 21 19 18 17 16 17 15 12 9 8 10 13 15 16 18 19 20
11 8 6 4 2 2 3 3 5 6 22 28 29 26 25 19 8 8 5 4 4 12 7 6 8 18 21 20 18 18 19 19 16 14 12 9 10 13 14 15 16 17 19 20
5 2 3 3 1 2 5 7 12 24 28 28 27 25 15 11 7 6 5 7 9 7 7 7 14 20 19 17 14 19 20 19 15 13 13 15 16 15 16 17 18 19 19 20
2 0 2 3 6 17 18 20 22 24 23 22 22 12 13 9 5 4 5 7 5 7 6 9 15 17 15 14 13 14 15 15 13 12 13 14 15 16 19 19 19 19 19 19
2 2 4 14 19 21 21 19 19 21 21 21 14 8 6 3 5 4 4 6 5 4 11 14 17 18 14 13 13 12 12 12 11 11 13 15 17 18 18 19 18 18 17 17
4 5 10 18 18 18 17 16 15 16 17 17 6 5 4 6 4 5 6 5 8 9 17 17 14 12 11 10 10 10 11 11 12 14 16 17 16 16 16 17 16 15 15 14

GFSNW_700_spd_216.txt.gz
Wind_Speed
43 47 48 48 50 45 52 55 67 60 54 59 58 57 71 42 66 55 44 49 42 44 47 54 44 41 38 22 48 52 52 36 41 35 24 52 49 50 47 22 9 29 23 9
47 50 50 45 47 49 54 63 67 57 55 57 50 57 57 48 62 57 51 34 47 43 44 46 49 42 32 25 30 46 46 23 12 16 25 27 52 50 51 46 27 26 16 9
50 48 48 49 50 54 60 70 53 46 56 57 53 41 54 61 55 56 57 55 43 44 41 43 48 39 35 40 25 46 42 23 33 14 11 22 33 38 35 43 37 29 33 17
48 45 44 44 53 58 68 73 47 63 60 65 71 58 48 50 58 61 52 61 57 42 36 48 38 43 35 32 36 46 46 32 26 28 14 15 29 31 33 46 48 36 32 33
44 41 35 36 53 65 76 72 57 56 40 55 56 55 52 51 46 46 60 49 63 55 34 49 46 51 53 53 47 43 46 37 40 40 40 27 20 26 36 40 46 47 39 34
39 36 27 8 46 70 75 61 44 47 41 38 51 60 58 50 47 56 57 54 53 58 49 40 39 51 52 55 54 51 51 29 37 32 32 26 20 43 34 38 47 44 42 39
30 34 23 4 40 59 70 45 43 38 43 35 45 50 47 46 52 47 49 52 45 53 58 42 46 46 46 45 49 57 55 42 31 16 23 7 36 26 23 52 44 40 41 33
28 27 10 6 29 53 54 43 43 39 33 46 28 38 44 44 45 53 49 49 46 33 38 30 30 42 43 41 47 53 55 49 21 17 19 12 21 25 30 28 40 35 46 35
22 16 14 4 31 46 52 43 40 39 28 32 42 36 28 32 48 41 48 56 52 45 36 40 18 12 25 21 35 39 44 49 32 23 8 12 31 29 24 16 35 26 37 36
15 12 11 31 36 48 46 42 39 25 27 11 33 29 37 34 32 44 44 48 51 47 43 39 14 22 44 31 45 48 43 40 35 24 8 13 21 15 20 20 13 16 26 34
8 5 4 13 27 35 31 37 19 24 25 21 20 20 14 33 23 19 37 36 56 49 42 39 26 12 26 29 48 54 42 31 23 20 14 12 26 23 29 26 23 15 21 25
12 16 13 12 13 14 16 20 19 27 34 21 24 28 26 28 30 26 26 21 33 41 33 17 29 12 12 30 22 39 25 36 29 38 31 23 32 25 31 30 24 22 23 25
23 16 19 17 15 15 16 18 15 15 22 28 27 20 24 32 38 36 38 34 31 32 45 26 9 14 30 19 19 36 24 32 24 31 26 30 31 28 31 30 27 28 24 22
28 4 23 19 17 17 17 18 20 20 18 18 20 18 18 24 32 40 35 34 37 35 35 49 21 9 23 22 20 39 36 36 30 26 19 30 33 33 33 29 28 26 23 23
28 13 17 22 22 21 19 20 20 19 20 9 14 15 25 26 33 36 27 28 29 33 44 40 29 25 22 25 24 29 33 41 41 42 35 35 36 36 33 31 28 24 25 23
18 14 6 19 19 18 22 18 18 20 24 25 18 21 24 26 15 16 21 27 32 46 37 40 38 24 18 32 19 26 33 37 37 29 27 33 29 29 31 31 28 24 23 19
17 17 3 12 20 19 20 17 19 23 22 27 20 8 9 10 15 17 23 34 32 41 45 34 23 42 29 13 14 24 29 29 28 27 24 28 29 35 31 27 25 23 19 16
9 14 10 3 8 15 21 24 23 17 27 21 6 5 8 11 18 20 20 23 26 16 17 22 26 28 19 6 10 22 21 20 23 25 22 19 28 31 32 30 23 18 18 17
3 9 12 10 13 9 12 12 15 17 22 7 7 8 7 11 16 17 16 14 16 13 16 16 11 8 5 12 20 25 26 25 29 30 28 36 37 34 31 25 20 18 18 17
1 4 4 7 9 12 10 5 5 4 3 4 9 8 10 14 13 11 10 11 9 8 12 10 14 14 14 18 22 25 28 27 30 30 34 35 30 27 26 23 21 19 19 17
6 5 3 2 3 6 4 3 2 2 2 4 8 12 17 13 13 11 5 6 6 4 5 5 6 14 18 22 29 29 24 26 28 27 22 24 23 26 26 25 25 20 16 13
4 4 2 8 5 4 3 3 1 1 2 4 12 17 15 13 10 6 6 4 3 5 8 5 6 18 24 21 24 24 23 25 24 24 23 26 26 26 29 25 21 17 12 10
6 2 1 4 4 4 2 4 4 4 5 10 16 15 16 11 6 6 4 3 5 15 4 6 12 14 26 26 26 26 24 23 24 28 31 32 33 26 21 18 15 12 11 9
7 4 5 3 3 4 6 4 5 5 11 16 16 16 6 8 5 5 4 7 5 3 4 5 14 15 19 26 27 30 32 32 32 32 31 27 23 20 16 14 12 10 9 8
4 3 3 4 6 8 5 4 4 8 15 18 17 9 7 5 5 3 5 4 3 3 3 9 11 14 26 28 29 27 26 28 27 25 26 24 21 16 12 11 10 9 10 11
3 3 2 2 1 6 10 14 16 13 13 14 11 6 3 3 4 2 2 5 3 4 6 8 11 17 24 25 24 21 22 22 22 23 23 21 18 13 10 10 9 11 12 13
3 2 7 5 6 6 13 13 12 16 12 8 5 3 2 4 3 4 4 3 7 7 6 9 14 21 22 20 20 22 23 25 25 23 19 17 15 13 11 11 11 11 12 13